Weather in Katarayevo

Russia / Lipetsk Oblast     53°31′59″N   39°01′19″E
temp.,
°C
wind,
m/s
gust,
m/s
humid.,
%
clouds,
%
prec.,
mm/h
press.,
hPa
HPBL,
m
8 march, mon
mon800:00−6w6148061 0.1 999418
03:00−8wsw6138532 0.1 1001336
06:00−6wsw6149141 0.0 1000432
09:00−6w7139168 0.0 1000822
12:00−4wnw71183100 0.1 10031147
15:00−5wnw698199 0.3 10041118
18:00−9wnw348725 0.0 100735
21:00−11nw338913 0.0 100922
9 march, tue
tue900:00−13nw23945 0.0 101021
03:00−13nnw339652 0.1 101254
06:00−13nnw369699 0.1 1012163
09:00−15nnw479575 0.1 1014233
12:00−13nnw469264 0.0 1016362
15:00−11nnw478880 0.0 1017579
18:00−14nw349497 0.0 101858
21:00−15nnw379698 0.1 1021157
10 march, wed
wed1000:00−19nnw469653 0.0 102287
03:00−22nw469726 0.0 102491
06:00−24nw47970 0.0 1026118
09:00−22nnw47950 0.0 1027238
12:00−19nnw469233 0.0 1028338
15:00−18nnw478836 0.0 1028457
18:00−21nnw34940 0.0 102943
21:00−22nnw33940 0.0 103127
11 march, thu
thu1100:00−23nnw33930 0.0 103222
03:00−23nnw23920 0.0 103320
06:00−23wnw23900 0.0 103420
09:00−21wnw248920 0.0 1035121
12:00−16nw34844 0.0 1034257
15:00−14nw238613 0.0 1034333
18:00−18w129227 0.0 103320
21:00−20wsw229314 0.0 103420
12 march, fri
fri1200:00−20sw22920 0.0 103520
03:00−21ssw23910 0.0 103420
06:00−21ssw33900 0.0 103426
09:00−18s36910 0.0 1034171
12:00−12s58860 0.0 1033404
15:00−10s510820 0.0 1032652
18:00−12s49850 0.0 1031185
21:00−13s6148133 0.0 1030327